Weather History for Gillette, WY

Change the Weather History Date:

Friday, November 9, 2012

  Actual Average Record
Temperature  
Mean Temperature 36 °F 36 °F  
Max Temperature 42 °F 48 °F 70 °F (1953)
Min Temperature 29 °F 24 °F -10 °F (1966)
Degree Days  
Heating Degree Days 29 29  
Month to date heating degree days 177 246  
Since 1 July heating degree days 974 1155  
Cooling Degree Days 0 0  
Month to date cooling degree days 0 0  
Year to date cooling degree days 795 502  
Moisture  
Dew Point 31 °F    
Average Humidity 84    
Maximum Humidity 100    
Minimum Humidity 67    
Precipitation  
Precipitation 0.07 in 0.02 in 0.53 in (2006)
Month to date precipitation 0.07 0.20  
Year to date precipitation 8.54 13.14  
Sea Level Pressure  
Sea Level Pressure 29.64 in    
Wind  
Wind Speed 18 mph (NW)    
Max Wind Speed 39 mph    
Max Gust Speed 45 mph    
Visibility 8 miles    
Events Rain , Snow    
T = Trace of Precipitation, MM = Missing Value Source: NWS Daily Summary

Daily Weather History Graph

Daily Weather History Graph

Search for Another Location

Airport:

Trip Planner

Search our weather history database for the weather conditions in past years. The results will help you decide how hot, cold, wet, or windy it might be!

Date:

Astronomy

Nov. 09, 2012 Rise Set
Actual Time 6:50 AM MST 4:40 PM MST
Civil Twilight 6:19 AM MST 5:11 PM MST
Nautical Twilight 5:45 AM MST 5:46 PM MST
Astronomical Twilight 5:10 AM MST 6:20 PM MST
Moon 1:42 AM MST (11/9) 2:04 PM MST (11/9)
Length of Visible Light 10h 51m
Length of Day
9h 50m
Waning Crescent, 22% of the Moon is Illuminated
Nov 9
Waning Crescent
Nov 13
New
Nov 20
First Quarter
Nov 28
Full
Dec 6
Last Quarter

Hourly Weather History & Observations

Time (MST) Temp. Windchill Dew Point Humidity Pressure Visibility Wind Dir Wind Speed Gust Speed Precip Events Conditions
12:53 AM 35.1 °F 23.5 °F 30.9 °F 85% 29.68 in 10.0 mi SSE 21.9 mph 31.1 mph N/A   Clear
1:53 AM 34.0 °F 23.0 °F 30.9 °F 89% 29.66 in 10.0 mi SSE 18.4 mph 28.8 mph N/A   Clear
2:53 AM 34.0 °F 23.4 °F 30.9 °F 89% 29.65 in 10.0 mi SSE 17.3 mph 26.5 mph N/A   Clear
3:41 AM 33.8 °F 20.8 °F 30.2 °F 87% 29.64 in 10.0 mi SSE 26.5 mph 34.5 mph N/A   Partly Cloudy
3:53 AM 34.0 °F 21.5 °F 30.9 °F 89% 29.64 in 10.0 mi SSE 24.2 mph 34.5 mph N/A   Scattered Clouds
4:13 AM 33.8 °F 21.9 °F 30.2 °F 87% 29.64 in 10.0 mi SSE 21.9 mph 35.7 mph N/A   Mostly Cloudy
4:53 AM 33.8 °F 22.5 °F 30.2 °F 87% 29.63 in 10.0 mi SSE 19.6 mph 33.4 mph N/A   Overcast
5:53 AM 33.1 °F 19.6 °F 30.9 °F 92% 29.64 in 9.0 mi South 27.6 mph 39.1 mph N/A   Mostly Cloudy
6:24 AM 32.0 °F 18.1 °F 30.2 °F 93% 29.60 in 8.0 mi South 27.6 mph 35.7 mph N/A   Mostly Cloudy
6:53 AM 32.0 °F 18.1 °F 30.0 °F 92% 29.63 in 8.0 mi South 27.6 mph 36.8 mph N/A   Overcast
7:53 AM 33.1 °F 19.1 °F 30.9 °F 92% 29.63 in 8.0 mi South 29.9 mph 40.3 mph N/A   Overcast
8:53 AM 33.1 °F 18.0 °F 30.9 °F 92% 29.63 in 10.0 mi SSE 35.7 mph 41.4 mph N/A   Overcast
9:53 AM 35.1 °F 21.6 °F 30.9 °F 85% 29.62 in 10.0 mi South 31.1 mph 40.3 mph N/A   Scattered Clouds
10:53 AM 39.9 °F 28.8 °F 32.0 °F 73% 29.62 in 10.0 mi SSE 27.6 mph 36.8 mph N/A   Clear
11:24 AM 37.4 °F 29.8 °F 30.2 °F 75% 29.62 in 10.0 mi SSE 11.5 mph 18.4 mph N/A   Mostly Cloudy
11:53 AM 39.0 °F 31.0 °F 30.9 °F 73% 29.63 in 10.0 mi South 13.8 mph 17.3 mph N/A   Mostly Cloudy
12:03 PM 39.2 °F 29.3 °F 32.0 °F 75% 29.60 in 10.0 mi SSE 20.7 mph - N/A   Scattered Clouds
12:53 PM 42.1 °F 34.2 °F 32.0 °F 67% 29.61 in 10.0 mi SSE 16.1 mph 20.7 mph N/A   Clear
1:53 PM 39.9 °F 32.1 °F 34.0 °F 79% 29.64 in 10.0 mi WSW 13.8 mph - 0.00 in Rain Light Rain
2:04 PM 39.2 °F 30.8 °F 33.8 °F 81% 29.61 in 6.0 mi WNW 15.0 mph - 0.00 in Rain Light Rain
2:12 PM 37.4 °F 29.3 °F 35.6 °F 93% 29.60 in 7.0 mi NW 12.7 mph - 0.01 in Rain Light Rain
2:53 PM 36.0 °F 29.6 °F 33.1 °F 89% 29.65 in 10.0 mi NNW 8.1 mph - 0.01 in   Overcast
3:19 PM 35.6 °F 28.0 °F 33.8 °F 93% 29.61 in 10.0 mi North 10.4 mph - N/A   Overcast
3:27 PM 35.6 °F 27.5 °F 33.8 °F 93% 29.60 in 10.0 mi NNW 11.5 mph - N/A   Overcast
3:37 PM 35.6 °F 27.5 °F 33.8 °F 93% 29.61 in 9.0 mi NNW 11.5 mph - N/A   Overcast
3:53 PM 35.1 °F 26.9 °F 33.1 °F 92% 29.67 in 9.0 mi NW 11.5 mph - N/A   Overcast
4:30 PM 33.8 °F 25.8 °F 33.8 °F 100% 29.62 in 8.0 mi NW 10.4 mph - N/A   Overcast
4:53 PM 34.0 °F 26.6 °F 32.0 °F 92% 29.69 in 10.0 mi NW 9.2 mph - N/A   Overcast
5:53 PM 32.0 °F 23.0 °F 30.9 °F 96% 29.72 in 10.0 mi NW 11.5 mph - N/A   Overcast
6:37 PM 32.0 °F 23.0 °F 30.2 °F 93% 29.64 in 10.0 mi NNW 11.5 mph - N/A   Overcast
6:53 PM 32.0 °F 24.8 °F 30.9 °F 96% 29.70 in 10.0 mi NNW 8.1 mph - N/A   Overcast
7:53 PM 32.0 °F 23.6 °F 30.9 °F 96% 29.71 in 9.0 mi NW 10.4 mph - N/A   Overcast
8:12 PM 30.2 °F 21.9 °F 30.2 °F 100% 29.64 in 1.8 mi NNW 9.2 mph - 0.00 in Snow Light Snow
8:23 PM 30.2 °F 21.3 °F 30.2 °F 100% 29.63 in 3.0 mi NNW 10.4 mph - 0.01 in Snow Light Snow
8:49 PM 30.2 °F 21.3 °F 30.2 °F 100% 29.62 in 7.0 mi NW 10.4 mph - 0.01 in   Overcast
8:53 PM 30.9 °F 22.8 °F 30.0 °F 96% 29.68 in 9.0 mi NNW 9.2 mph - 0.01 in   Overcast
9:06 PM 30.2 °F 21.9 °F 30.2 °F 100% 29.62 in 10.0 mi NW 9.2 mph - N/A   Overcast
9:36 PM 30.2 °F 20.8 °F 30.2 °F 100% 29.63 in 10.0 mi NW 11.5 mph - N/A   Overcast
9:44 PM 30.2 °F 20.2 °F 30.2 °F 100% 29.65 in 10.0 mi NW 12.7 mph - N/A   Overcast
9:53 PM 30.9 °F 21.2 °F 30.0 °F 96% 29.70 in 9.0 mi NW 12.7 mph - N/A   Overcast
10:02 PM 30.2 °F 24.3 °F 30.2 °F 100% 29.64 in 1.8 mi NW 5.8 mph - 0.01 in Snow Light Snow
10:12 PM 30.2 °F 20.8 °F 30.2 °F 100% 29.63 in 2.5 mi NW 11.5 mph - 0.02 in Snow Light Snow
10:19 PM 30.2 °F 20.8 °F 28.4 °F 93% 29.63 in 2.5 mi NW 11.5 mph - 0.02 in Snow Light Snow
10:30 PM 30.2 °F 20.8 °F 28.4 °F 93% 29.64 in 2.5 mi NW 11.5 mph - 0.02 in Snow Light Snow
10:41 PM 30.2 °F 21.9 °F 30.2 °F 100% 29.64 in 3.0 mi NW 9.2 mph - 0.02 in Snow Light Snow
10:53 PM 30.0 °F 22.4 °F 30.0 °F 100% 29.66 in 2.0 mi NNW 8.1 mph - 0.03 in Snow Light Snow
11:01 PM 30.2 °F 21.9 °F 30.2 °F 100% 29.62 in 2.5 mi NNW 9.2 mph - 0.00 in Snow Light Snow
11:11 PM 30.2 °F 21.9 °F 28.4 °F 93% 29.61 in 3.0 mi NNW 9.2 mph - 0.00 in Snow Light Snow
11:22 PM 30.2 °F 20.2 °F 28.4 °F 93% 29.61 in 4.0 mi NNW 12.7 mph - 0.00 in Snow Light Snow
11:45 PM 30.2 °F 21.3 °F 28.4 °F 93% 29.60 in 2.0 mi North 10.4 mph - 0.01 in Snow Light Snow
11:53 PM 28.9 °F 19.2 °F 28.9 °F 100% 29.65 in 1.2 mi North 11.5 mph - 0.02 in Snow Light Snow